| time (UTC) | temp C | wind direction | speed KPH | gust KPH | rain 1hr cm | rain 24hr cm | rain mn cm | humidity % | barometer mb |
| 20260510234355 | 10 | 188 | 12.9 | 19.3 | 0.00 | 0.28 | 0.00 | 76 | 1015.6 |
| 20260510233856 | 10 | 221 | 14.5 | 20.9 | 0.00 | 0.28 | 0.00 | 76 | 1015.7 |
| 20260510233354 | 10 | 196 | 14.5 | 20.9 | 0.00 | 0.28 | 0.00 | 74 | 1015.7 |
| 20260510232854 | 10 | 192 | 12.9 | 19.3 | 0.00 | 0.28 | 0.00 | 72 | 1015.6 |
| 20260510232353 | 11 | 229 | 12.9 | 19.3 | 0.00 | 0.28 | 0.00 | 67 | 1015.6 |
| 20260510231853 | 11 | 205 | 9.7 | 17.7 | 0.00 | 0.28 | 0.00 | 62 | 1015.5 |
| 20260510231351 | 12 | 0 | 3.2 | 16.1 | 0.00 | 0.28 | 0.00 | 56 | 1015.6 |
| 20260510230851 | 12 | 215 | 0.0 | 8.0 | 0.00 | 0.28 | 0.00 | 50 | 1015.5 |
| 20260510230349 | 12 | 315 | 0.0 | 1.6 | 0.00 | 0.28 | 0.00 | 52 | 1015.5 |
| 20260510225346 | 12 | 24 | 1.6 | 9.7 | 0.00 | 0.28 | 0.00 | 54 | 1015.3 |
| 20260510224845 | 12 | 5 | 0.0 | 9.7 | 0.00 | 0.28 | 0.00 | 54 | 1015.3 |
| 20260510224345 | 12 | 323 | 0.0 | 9.7 | 0.00 | 0.28 | 0.00 | 53 | 1015.2 |
| 20260510223845 | 12 | 311 | 1.6 | 6.4 | 0.00 | 0.28 | 0.00 | 54 | 1015.2 |
| 20260510223341 | 12 | 240 | 1.6 | 12.9 | 0.00 | 0.28 | 0.00 | 52 | 1015.2 |
| 20260510222839 | 12 | 227 | 4.8 | 16.1 | 0.00 | 0.28 | 0.00 | 52 | 1015.1 |
| 20260510221831 | 12 | 213 | 3.2 | 24.1 | 0.00 | 0.28 | 0.00 | 53 | 1015.1 |
| 20260510221324 | 12 | 221 | 4.8 | 19.3 | 0.00 | 0.28 | 0.00 | 58 | 1015.0 |
| 20260510220825 | 12 | 219 | 6.4 | 14.5 | 0.00 | 0.28 | 0.00 | 54 | 1014.9 |
| 20260510215823 | 12 | 217 | 11.3 | 29.0 | 0.00 | 0.28 | 0.00 | 57 | 1014.8 |
| 20260510215323 | 12 | 212 | 12.9 | 29.0 | 0.00 | 0.28 | 0.00 | 61 | 1014.8 |
| 20260510214822 | 11 | 223 | 12.9 | 27.4 | 0.00 | 0.28 | 0.00 | 61 | 1014.8 |
| 20260510214319 | 11 | 0 | 17.7 | 30.6 | 0.00 | 0.28 | 0.00 | 65 | 1014.8 |
| 20260510213820 | 11 | 198 | 19.3 | 33.8 | 0.00 | 0.28 | 0.00 | 68 | 1014.7 |
| 20260510212819 | 11 | 212 | 12.9 | 22.5 | 0.00 | 0.28 | 0.00 | 63 | 1014.7 |
| 20260510212319 | 11 | 214 | 11.3 | 25.7 | 0.00 | 0.28 | 0.00 | 59 | 1014.6 |
| 20260510211816 | 11 | 220 | 11.3 | 30.6 | 0.00 | 0.28 | 0.00 | 63 | 1014.4 |
| 20260510211317 | 11 | 223 | 14.5 | 30.6 | 0.00 | 0.28 | 0.00 | 63 | 1014.3 |
| 20260510210817 | 11 | 205 | 17.7 | 30.6 | 0.00 | 0.28 | 0.00 | 65 | 1014.3 |
| 20260510210318 | 12 | 227 | 14.5 | 30.6 | 0.00 | 0.28 | 0.00 | 59 | 1014.2 |
| 20260510205817 | 12 | 0 | 12.9 | 24.1 | 0.00 | 0.28 | 0.00 | 57 | 1014.0 |
| 20260510205318 | 12 | 205 | 14.5 | 29.0 | 0.00 | 0.28 | 0.00 | 59 | 1013.9 |
| 20260510204816 | 11 | 236 | 16.1 | 29.0 | 0.00 | 0.28 | 0.00 | 60 | 1013.9 |
| 20260510204309 | 11 | 219 | 17.7 | 32.2 | 0.00 | 0.28 | 0.00 | 62 | 1013.8 |
| 20260510203257 | 10 | 236 | 22.5 | 33.8 | 0.00 | 0.28 | 0.00 | 66 | 1013.8 |
| 20260510202751 | 10 | 223 | 22.5 | 33.8 | 0.00 | 0.28 | 0.00 | 70 | 1013.7 |
| 20260510202244 | 10 | 183 | 24.1 | 32.2 | 0.00 | 0.28 | 0.00 | 72 | 1013.7 |
| 20260510201740 | 10 | 0 | 25.7 | 32.2 | 0.00 | 0.28 | 0.00 | 71 | 1013.7 |
| 20260510201232 | 10 | 205 | 24.1 | 33.8 | 0.00 | 0.28 | 0.00 | 72 | 1013.7 |
| 20260510200726 | 10 | 0 | 22.5 | 30.6 | 0.00 | 0.28 | 0.00 | 72 | 1013.6 |
| 20260510200221 | 10 | 172 | 22.5 | 32.2 | 0.00 | 0.28 | 0.00 | 71 | 1013.6 |
| 20260510195716 | 11 | 203 | 24.1 | 32.2 | 0.00 | 0.28 | 0.00 | 70 | 1013.6 |
| 20260510195208 | 11 | 0 | 25.7 | 33.8 | 0.00 | 0.28 | 0.00 | 71 | 1013.6 |
| 20260510194703 | 11 | 232 | 25.7 | 33.8 | 0.00 | 0.28 | 0.00 | 69 | 1013.6 |
| 20260510194156 | 10 | 187 | 24.1 | 38.6 | 0.00 | 0.28 | 0.00 | 72 | 1013.7 |
| 20260510192638 | 10 | 197 | 24.1 | 32.2 | 0.00 | 0.28 | 0.00 | 72 | 1013.7 |
| 20260510192132 | 10 | 205 | 24.1 | 32.2 | 0.00 | 0.28 | 0.00 | 71 | 1013.6 |
| 20260510191626 | 10 | 0 | 24.1 | 30.6 | 0.00 | 0.28 | 0.00 | 71 | 1013.6 |
| 20260510191121 | 10 | 215 | 24.1 | 38.6 | 0.00 | 0.28 | 0.00 | 71 | 1013.6 |
| 20260510190614 | 10 | 197 | 25.7 | 40.2 | 0.00 | 0.28 | 0.00 | 69 | 1013.6 |
| 20260510190110 | 11 | 219 | 22.5 | 40.2 | 0.00 | 0.28 | 0.00 | 66 | 1013.5 |
| 20260510185602 | 11 | 0 | 22.5 | 38.6 | 0.00 | 0.28 | 0.00 | 67 | 1013.4 |
| 20260510184044 | 10 | 197 | 25.7 | 37.0 | 0.00 | 0.28 | 0.00 | 69 | 1013.2 |
| 20260510183540 | 11 | 217 | 24.1 | 33.8 | 0.00 | 0.28 | 0.00 | 69 | 1013.2 |
| 20260510183041 | 10 | 225 | 24.1 | 38.6 | 0.00 | 0.28 | 0.00 | 65 | 1013.1 |
| 20260510182540 | 11 | 0 | 25.7 | 38.6 | 0.00 | 0.28 | 0.00 | 65 | 1013.1 |
| 20260510182041 | 11 | 0 | 22.5 | 37.0 | 0.00 | 0.28 | 0.00 | 63 | 1012.9 |
| 20260510181040 | 11 | 0 | 24.1 | 37.0 | 0.00 | 0.28 | 0.00 | 59 | 1012.8 |
| 20260510180540 | 12 | 205 | 19.3 | 43.5 | 0.00 | 0.28 | 0.00 | 57 | 1012.6 |
| 20260510180041 | 12 | 216 | 14.5 | 43.5 | 0.00 | 0.28 | 0.00 | 59 | 1012.5 |
| 20260510175540 | 12 | 195 | 14.5 | 30.6 | 0.00 | 0.28 | 0.00 | 58 | 1012.5 |
| 20260510175040 | 12 | 223 | 20.9 | 37.0 | 0.00 | 0.28 | 0.00 | 61 | 1012.4 |
| 20260510174541 | 11 | 0 | 24.1 | 37.0 | 0.00 | 0.28 | 0.00 | 61 | 1012.4 |
| 20260510174041 | 12 | 0 | 24.1 | 40.2 | 0.00 | 0.28 | 0.00 | 61 | 1012.5 |
| 20260510173541 | 12 | 213 | 24.1 | 40.2 | 0.00 | 0.28 | 0.00 | 58 | 1012.4 |
| 20260510173041 | 12 | 226 | 20.9 | 37.0 | 0.00 | 0.28 | 0.00 | 59 | 1012.4 |
| 20260510172540 | 12 | 227 | 20.9 | 32.2 | 0.00 | 0.28 | 0.00 | 62 | 1012.3 |
| 20260510171540 | 11 | 0 | 22.5 | 35.4 | 0.00 | 0.28 | 0.00 | 64 | 1012.3 |
| 20260510171035 | 11 | 192 | 22.5 | 37.0 | 0.00 | 0.28 | 0.00 | 67 | 1012.3 |
| 20260510170528 | 11 | 219 | 22.5 | 37.0 | 0.00 | 0.28 | 0.00 | 69 | 1012.3 |
| 20260510170022 | 11 | 175 | 22.5 | 30.6 | 0.00 | 0.28 | 0.00 | 71 | 1012.3 |
| 20260510165010 | 10 | 192 | 24.1 | 33.8 | 0.00 | 0.28 | 0.00 | 71 | 1012.3 |
| 20260510164505 | 10 | 0 | 24.1 | 33.8 | 0.00 | 0.28 | 0.00 | 71 | 1012.3 |
| 20260510163452 | 10 | 216 | 22.5 | 38.6 | 0.00 | 0.28 | 0.00 | 70 | 1012.2 |
| 20260510162945 | 11 | 202 | 19.3 | 32.2 | 0.00 | 0.28 | 0.00 | 67 | 1012.2 |
| 20260510162443 | 11 | 0 | 20.9 | 30.6 | 0.00 | 0.28 | 0.00 | 68 | 1012.0 |
| 20260510161943 | 11 | 230 | 14.5 | 32.2 | 0.00 | 0.28 | 0.00 | 64 | 1012.2 |
| 20260510160943 | 13 | 201 | 12.9 | 35.4 | 0.00 | 0.28 | 0.00 | 46 | 1012.1 |
| 20260510155943 | 13 | 219 | 12.9 | 33.8 | 0.00 | 0.28 | 0.00 | 48 | 1012.0 |
| 20260510154942 | 13 | 222 | 6.4 | 24.1 | 0.00 | 0.28 | 0.00 | 52 | 1011.9 |
| 20260510154443 | 13 | 221 | 8.0 | 32.2 | 0.00 | 0.28 | 0.00 | 52 | 1011.8 |
| 20260510153943 | 13 | 218 | 6.4 | 32.2 | 0.00 | 0.28 | 0.00 | 50 | 1011.8 |
| 20260510153443 | 13 | 209 | 1.6 | 16.1 | 0.00 | 0.28 | 0.00 | 54 | 1011.7 |
| 20260510152943 | 13 | 171 | 6.4 | 27.4 | 0.00 | 0.28 | 0.00 | 55 | 1011.6 |
| 20260510152443 | 12 | 230 | 9.7 | 27.4 | 0.00 | 0.28 | 0.00 | 52 | 1011.7 |
| 20260510150934 | -17 | 0.0 | 0.0 | 0.00 | 0.28 | 0.00 | 1011.5 | ||
| 20260510145846 | -17 | 0.0 | 0.0 | 0.00 | 0.28 | 0.00 | 1011.4 | ||
| 20260510145333 | -17 | 0.0 | 0.0 | 0.00 | 0.28 | 0.00 | 1011.3 | ||
| 20260510144746 | -17 | 0.0 | 0.0 | 0.00 | 0.28 | 0.00 | 1011.2 | ||
| 20260510144243 | -17 | 0.0 | 0.0 | 0.00 | 0.28 | 0.00 | 1011.2 | ||
| 20260510143647 | -17 | 0.0 | 0.0 | 0.00 | 0.28 | 0.00 | 1011.3 | ||
| 20260510143144 | -17 | 0.0 | 0.0 | 0.00 | 0.28 | 0.00 | 1011.1 | ||
| 20260510142047 | -17 | 0.0 | 0.0 | 0.00 | 0.28 | 0.00 | 1011.1 | ||
| 20260510141546 | -17 | 0.0 | 0.0 | 0.00 | 0.28 | 0.00 | 1011.1 | ||
| 20260510141039 | -17 | 0.0 | 0.0 | 0.00 | 0.28 | 0.00 | 1011.1 | ||
| 20260510140448 | -17 | 0.0 | 0.0 | 0.00 | 0.28 | 0.00 | 1011.0 | ||
| 20260510135944 | -17 | 0.0 | 0.0 | 0.00 | 0.28 | 0.00 | 1011.1 | ||
| 20260510135433 | -17 | 0.0 | 0.0 | 0.00 | 0.28 | 0.00 | 1011.0 | ||
| 20260510134846 | -17 | 0.0 | 0.0 | 0.00 | 0.28 | 0.00 | 1011.0 | ||
| 20260510134344 | -17 | 0.0 | 0.0 | 0.00 | 0.28 | 0.00 | 1011.0 | ||
| 20260510133754 | -17 | 0.0 | 0.0 | 0.00 | 0.28 | 0.00 | 1011.0 | ||
| 20260510133249 | -17 | 0.0 | 0.0 | 0.00 | 0.28 | 0.00 | 1010.9 | ||
| 20260510132225 | -17 | 0.0 | 0.0 | 0.00 | 0.28 | 0.00 | 1010.8 | ||
| 20260510131647 | -17 | 0.0 | 0.0 | 0.00 | 0.28 | 0.00 | 1010.9 | ||
| 20260510131144 | -17 | 0.0 | 0.0 | 0.00 | 0.28 | 0.00 | 1010.8 | ||
| 20260510130642 | -17 | 0.0 | 0.0 | 0.00 | 0.28 | 0.00 | 1010.8 | ||
| 20260510130143 | -17 | 0.0 | 0.0 | 0.00 | 0.28 | 0.00 | 1010.8 | ||
| 20260510125638 | -17 | 0.0 | 0.0 | 0.00 | 0.28 | 0.00 | 1010.7 | ||
| 20260510124538 | -17 | 0.0 | 0.0 | 0.00 | 0.28 | 0.00 | 1010.6 | ||
| 20260510124027 | -17 | 0.0 | 0.0 | 0.00 | 0.28 | 0.00 | 1010.6 | ||
| 20260510123443 | -17 | 0.0 | 0.0 | 0.00 | 0.28 | 0.00 | 1010.6 | ||
| 20260510122942 | -17 | 0.0 | 0.0 | 0.00 | 0.28 | 0.00 | 1010.5 | ||
| 20260510122348 | -17 | 0.0 | 0.0 | 0.00 | 0.28 | 0.00 | 1010.4 | ||
| 20260510121349 | -17 | 0.0 | 0.0 | 0.00 | 0.28 | 0.00 | 1010.3 | ||
| 20260510120842 | -17 | 0.0 | 0.0 | 0.00 | 0.28 | 0.00 | 1010.3 | ||
| 20260510120252 | -17 | 0.0 | 0.0 | 0.00 | 0.28 | 0.00 | 1010.2 | ||
| 20260510115746 | -17 | 0.0 | 0.0 | 0.00 | 0.28 | 0.00 | 1010.2 | ||
| 20260510115236 | -17 | 0.0 | 0.0 | 0.00 | 0.28 | 0.00 | 1010.1 | ||
| 20260510114648 | -17 | 0.0 | 0.0 | 0.00 | 0.28 | 0.00 | 1010.1 | ||
| 20260510114144 | -17 | 0.0 | 0.0 | 0.00 | 0.28 | 0.00 | 1009.9 | ||
| 20260510113552 | -17 | 0.0 | 0.0 | 0.00 | 0.28 | 0.00 | 1009.9 | ||
| 20260510113043 | -17 | 0.0 | 0.0 | 0.00 | 0.28 | 0.00 | 1009.8 | ||
| 20260510112539 | -17 | 0.0 | 0.0 | 0.00 | 0.28 | 0.00 | 1009.5 | ||
| 20260510111946 | -17 | 0.0 | 0.0 | 0.00 | 0.28 | 0.00 | 1009.5 | ||
| 20260510111443 | -17 | 0.0 | 0.0 | 0.00 | 0.28 | 0.00 | 1009.3 | ||
| 20260510110942 | -17 | 0.0 | 0.0 | 0.00 | 0.28 | 0.00 | 1009.2 | ||
| 20260510110442 | -17 | 0.0 | 0.0 | 0.00 | 0.28 | 0.00 | 1009.1 | ||
| 20260510105934 | -17 | 0.0 | 0.0 | 0.00 | 0.28 | 0.00 | 1008.9 | ||
| 20260510105434 | -17 | 0.0 | 0.0 | 0.00 | 0.28 | 0.00 | 1008.8 | ||
| 20260510104847 | -17 | 0.0 | 0.0 | 0.00 | 0.28 | 0.00 | 1008.7 | ||
| 20260510104342 | -17 | 0.0 | 0.0 | 0.00 | 0.28 | 0.00 | 1008.5 | ||
| 20260510103835 | -17 | 0.0 | 0.0 | 0.00 | 0.28 | 0.00 | 1008.4 | ||
| 20260510103244 | -17 | 0.0 | 0.0 | 0.00 | 0.28 | 0.00 | 1008.3 | ||
| 20260510102742 | -17 | 0.0 | 0.0 | 0.00 | 0.28 | 0.00 | 1008.2 | ||
| 20260510102240 | -17 | 0.0 | 0.0 | 0.00 | 0.28 | 0.00 | 1008.1 | ||
| 20260510101645 | -17 | 0.0 | 0.0 | 0.00 | 0.28 | 0.00 | 1008.0 | ||
| 20260510101144 | -17 | 0.0 | 0.0 | 0.00 | 0.28 | 0.00 | 1007.9 | ||
| 20260510100546 | -17 | 0.0 | 0.0 | 0.00 | 0.28 | 0.00 | 1007.8 | ||
| 20260510100047 | -17 | 0.0 | 0.0 | 0.00 | 0.28 | 0.00 | 1007.7 | ||
| 20260510095544 | -17 | 0.0 | 0.0 | 0.00 | 0.28 | 0.00 | 1007.9 | ||
| 20260510095044 | -17 | 0.0 | 0.0 | 0.00 | 0.28 | 0.00 | 1007.6 | ||
| 20260510094545 | -17 | 0.0 | 0.0 | 0.00 | 0.28 | 0.00 | 1007.4 | ||
| 20260510093538 | -17 | 0.0 | 0.0 | 0.00 | 0.28 | 0.00 | 1007.3 | ||
| 20260510093030 | -17 | 0.0 | 0.0 | 0.00 | 0.28 | 0.00 | 1007.3 | ||
| 20260510092446 | -17 | 0.0 | 0.0 | 0.00 | 0.28 | 0.00 | 1007.4 | ||
| 20260510091946 | -17 | 0.0 | 0.0 | 0.00 | 0.28 | 0.00 | 1007.0 | ||
| 20260510091444 | -17 | 0.0 | 0.0 | 0.00 | 0.28 | 0.00 | 1007.1 | ||
| 20260510090935 | -17 | 0.0 | 0.0 | 0.00 | 0.28 | 0.00 | 1007.1 | ||
| 20260510090340 | -17 | 0.0 | 0.0 | 0.00 | 0.28 | 0.00 | 1007.1 | ||
| 20260510085748 | 9 | 0.0 | 0.0 | 0.00 | 0.28 | 0.00 | 93 | 1007.1 | |
| 20260510085237 | 9 | 201 | 9.7 | 11.3 | 0.00 | 0.28 | 0.00 | 93 | 1007.1 |
| 20260510084725 | 9 | 201 | 9.7 | 14.5 | 0.00 | 0.28 | 0.00 | 93 | 1007.0 |
| 20260510084210 | 9 | 201 | 11.3 | 16.1 | 0.00 | 0.28 | 0.00 | 93 | 1006.9 |
| 20260510083204 | 10 | 223 | 8.0 | 14.5 | 0.00 | 0.28 | 0.00 | 92 | 1007.0 |
| 20260510082703 | 10 | 0 | 8.0 | 14.5 | 0.00 | 0.28 | 0.00 | 93 | 1006.8 |
| 20260510082156 | 10 | 207 | 9.7 | 16.1 | 0.00 | 0.28 | 0.00 | 93 | 1007.0 |
| 20260510081650 | 10 | 207 | 9.7 | 16.1 | 0.00 | 0.28 | 0.00 | 93 | 1007.0 |
| 20260510081146 | 10 | 211 | 9.7 | 20.9 | 0.00 | 0.28 | 0.00 | 93 | 1007.0 |
| 20260510080143 | 10 | 198 | 11.3 | 22.5 | 0.00 | 0.28 | 0.00 | 93 | 1007.0 |
| 20260510075644 | 10 | 212 | 9.7 | 22.5 | 0.00 | 0.28 | 0.00 | 93 | 1006.8 |
| 20260510075142 | 10 | 235 | 8.0 | 16.1 | 0.00 | 0.28 | 0.00 | 93 | 1006.9 |
| 20260510074642 | 10 | 194 | 8.0 | 19.3 | 0.00 | 0.28 | 0.00 | 93 | 1006.8 |
| 20260510073639 | 10 | 235 | 8.0 | 16.1 | 0.00 | 0.28 | 0.00 | 93 | 1006.7 |
| 20260510073140 | 10 | 192 | 8.0 | 12.9 | 0.00 | 0.28 | 0.00 | 93 | 1006.7 |
| 20260510072640 | 10 | 228 | 9.7 | 16.1 | 0.00 | 0.28 | 0.00 | 93 | 1006.5 |
| 20260510072139 | 10 | 207 | 8.0 | 16.1 | 0.00 | 0.28 | 0.00 | 92 | 1006.4 |
| 20260510071638 | 10 | 182 | 9.7 | 16.1 | 0.00 | 0.28 | 0.00 | 93 | 1006.3 |
| 20260510071138 | 10 | 219 | 9.7 | 17.7 | 0.00 | 0.28 | 0.00 | 93 | 1006.2 |
| 20260510070639 | 10 | 217 | 11.3 | 17.7 | 0.00 | 0.28 | 0.00 | 93 | 1006.3 |
| 20260510070139 | 10 | 223 | 11.3 | 17.7 | 0.00 | 0.28 | 0.00 | 93 | 1006.3 |
| 20260510065637 | 10 | 234 | 9.7 | 17.7 | 0.00 | 0.28 | 0.00 | 93 | 1006.3 |
| 20260510065130 | 10 | 221 | 9.7 | 19.3 | 0.00 | 0.28 | 0.00 | 93 | 1006.2 |
| 20260510064624 | 10 | 210 | 11.3 | 19.3 | 0.00 | 0.28 | 0.00 | 93 | 1006.0 |
| 20260510064117 | 10 | 212 | 9.7 | 20.9 | 0.00 | 0.28 | 0.00 | 93 | 1006.0 |
| 20260510063612 | 10 | 215 | 9.7 | 20.9 | 0.00 | 0.28 | 0.00 | 93 | 1005.8 |
| 20260510063105 | 10 | 215 | 9.7 | 17.7 | 0.00 | 0.28 | 0.00 | 93 | 1005.8 |
| 20260510062053 | 10 | 181 | 9.7 | 19.3 | 0.00 | 0.28 | 0.00 | 93 | 1006.0 |
| 20260510061550 | 10 | 219 | 9.7 | 17.7 | 0.00 | 0.28 | 0.00 | 93 | 1005.9 |
| 20260510061050 | 10 | 225 | 11.3 | 17.7 | 0.00 | 0.28 | 0.00 | 93 | 1006.0 |
| 20260510060547 | 10 | 184 | 12.9 | 22.5 | 0.00 | 0.28 | 0.00 | 93 | 1005.7 |
| 20260510060047 | 10 | 217 | 12.9 | 22.5 | 0.00 | 0.28 | 0.00 | 93 | 1005.8 |
| 20260510055046 | 10 | 243 | 11.3 | 22.5 | 0.00 | 0.28 | 0.00 | 94 | 1006.0 |
| 20260510054046 | 10 | 221 | 14.5 | 22.5 | 0.00 | 0.28 | 0.00 | 94 | 1006.0 |
| 20260510053544 | 10 | 232 | 16.1 | 24.1 | 0.00 | 0.28 | 0.00 | 94 | 1005.9 |
| 20260510053044 | 10 | 215 | 16.1 | 27.4 | 0.00 | 0.28 | 0.00 | 95 | 1006.0 |
| 20260510052543 | 10 | 219 | 14.5 | 27.4 | 0.00 | 0.28 | 0.00 | 95 | 1005.8 |
| 20260510052044 | 9 | 198 | 14.5 | 22.5 | 0.00 | 0.28 | 0.00 | 94 | 1005.8 |
| 20260510051544 | 9 | 196 | 16.1 | 24.1 | 0.00 | 0.28 | 0.00 | 94 | 1005.7 |
| 20260510051043 | 9 | 219 | 16.1 | 24.1 | 0.00 | 0.28 | 0.00 | 94 | 1005.6 |
| 20260510050544 | 10 | 200 | 16.1 | 22.5 | 0.00 | 0.28 | 0.00 | 94 | 1005.6 |
| 20260510050043 | 10 | 224 | 14.5 | 19.3 | 0.00 | 0.28 | 0.00 | 94 | 1005.5 |
| 20260510045544 | 10 | 213 | 14.5 | 22.5 | 0.00 | 0.28 | 0.00 | 94 | 1005.5 |
| 20260510045043 | 10 | 229 | 16.1 | 22.5 | 0.00 | 0.28 | 0.00 | 94 | 1005.4 |
| 20260510044032 | 10 | 234 | 14.5 | 22.5 | 0.00 | 0.28 | 0.00 | 94 | 1005.3 |
| 20260510043526 | 10 | 231 | 14.5 | 22.5 | 0.00 | 0.28 | 0.00 | 94 | 1005.2 |
| 20260510043020 | 10 | 225 | 14.5 | 24.1 | 0.00 | 0.28 | 0.00 | 94 | 1005.2 |
| 20260510042513 | 10 | 216 | 14.5 | 24.1 | 0.00 | 0.28 | 0.00 | 94 | 1005.1 |
| 20260510042007 | 10 | 226 | 14.5 | 22.5 | 0.00 | 0.28 | 0.00 | 94 | 1005.0 |
| 20260510041501 | 10 | 221 | 14.5 | 22.5 | 0.00 | 0.28 | 0.00 | 94 | 1005.0 |
| 20260510040956 | 10 | 217 | 16.1 | 22.5 | 0.00 | 0.28 | 0.00 | 95 | 1005.0 |
| 20260510035944 | 10 | 215 | 14.5 | 20.9 | 0.03 | 0.28 | 0.28 | 94 | 1004.8 |
| 20260510035437 | 10 | 196 | 14.5 | 22.5 | 0.03 | 0.28 | 0.28 | 93 | 1004.7 |
| 20260510034931 | 10 | 205 | 14.5 | 22.5 | 0.03 | 0.28 | 0.28 | 94 | 1004.7 |
| 20260510034426 | 10 | 213 | 14.5 | 19.3 | 0.03 | 0.28 | 0.28 | 94 | 1004.8 |
| 20260510033919 | 10 | 207 | 14.5 | 22.5 | 0.05 | 0.28 | 0.28 | 94 | 1004.7 |
| 20260510033414 | 10 | 224 | 14.5 | 25.7 | 0.05 | 0.28 | 0.28 | 93 | 1004.6 |
| 20260510032907 | 10 | 219 | 12.9 | 25.7 | 0.10 | 0.28 | 0.28 | 94 | 1004.6 |
| 20260510032401 | 10 | 203 | 11.3 | 16.1 | 0.15 | 0.28 | 0.28 | 94 | 1004.4 |
| 20260510031855 | 10 | 208 | 8.0 | 16.1 | 0.25 | 0.28 | 0.28 | 93 | 1004.5 |
| 20260510031350 | 10 | 0 | 6.4 | 12.9 | 0.28 | 0.28 | 0.28 | 93 | 1004.4 |
| 20260510030337 | 10 | 218 | 9.7 | 16.1 | 0.25 | 0.25 | 0.25 | 93 | 1004.2 |
| 20260510025832 | 10 | 185 | 12.9 | 19.3 | 0.25 | 0.25 | 0.25 | 92 | 1004.3 |
| 20260510025325 | 10 | 182 | 16.1 | 22.5 | 0.25 | 0.25 | 0.25 | 92 | 1004.4 |
| 20260510024819 | 10 | 192 | 16.1 | 24.1 | 0.25 | 0.25 | 0.25 | 91 | 1004.5 |
| 20260510024314 | 10 | 178 | 16.1 | 24.1 | 0.23 | 0.23 | 0.25 | 90 | 1004.5 |
| 20260510023807 | 10 | 190 | 17.7 | 27.4 | 0.23 | 0.23 | 0.23 | 88 | 1004.7 |
| 20260510023302 | 11 | 196 | 17.7 | 30.6 | 0.20 | 0.20 | 0.23 | 88 | 1004.7 |
| 20260510022755 | 12 | 0 | 11.3 | 30.6 | 0.18 | 0.18 | 0.18 | 87 | 1004.7 |
| 20260510022249 | 12 | 230 | 11.3 | 24.1 | 0.10 | 0.10 | 0.10 | 86 | 1004.8 |
| 20260510021743 | 12 | 215 | 16.1 | 24.1 | 0.03 | 0.03 | 0.03 | 85 | 1004.4 |
| 20260510021240 | 12 | 217 | 17.7 | 29.0 | 0.00 | 0.00 | 0.00 | 82 | 1003.9 |
| 20260510020732 | 12 | 188 | 19.3 | 33.8 | 0.00 | 0.00 | 0.00 | 81 | 1003.7 |
| 20260510020226 | 12 | 175 | 20.9 | 33.8 | 0.00 | 0.00 | 0.00 | 81 | 1003.5 |
| 20260510015719 | 13 | 0 | 19.3 | 32.2 | 0.00 | 0.00 | 0.00 | 81 | 1003.4 |
| 20260510015213 | 13 | 175 | 19.3 | 29.0 | 0.00 | 0.00 | 0.00 | 81 | 1003.3 |
| 20260510014201 | 12 | 167 | 17.7 | 27.4 | 0.00 | 0.00 | 0.00 | 81 | 1002.8 |
| 20260510013149 | 13 | 164 | 19.3 | 29.0 | 0.00 | 0.00 | 0.00 | 80 | 1003.3 |
| 20260510012643 | 13 | 178 | 19.3 | 29.0 | 0.00 | 0.00 | 0.00 | 79 | 1003.4 |
| 20260510012143 | 13 | 171 | 20.9 | 30.6 | 0.00 | 0.00 | 0.00 | 80 | 1003.4 |
| 20260510011143 | 13 | 165 | 17.7 | 29.0 | 0.00 | 0.00 | 0.00 | 80 | 1003.4 |
| 20260510010644 | 13 | 167 | 20.9 | 35.4 | 0.00 | 0.00 | 0.00 | 78 | 1003.3 |
| 20260510005643 | 13 | 171 | 20.9 | 35.4 | 0.00 | 0.00 | 0.00 | 78 | 1003.2 |
| 20260510005143 | 13 | 146 | 19.3 | 35.4 | 0.00 | 0.00 | 0.00 | 78 | 1003.2 |
| 20260510004644 | 13 | 184 | 19.3 | 32.2 | 0.00 | 0.00 | 0.00 | 77 | 1003.1 |
| 20260510004143 | 13 | 155 | 17.7 | 29.0 | 0.00 | 0.00 | 0.00 | 77 | 1003.1 |
| 20260510002643 | 13 | 165 | 14.5 | 22.5 | 0.00 | 0.00 | 0.00 | 77 | 1003.2 |
| 20260510001643 | 13 | 170 | 16.1 | 27.4 | 0.00 | 0.00 | 0.00 | 76 | 1003.1 |
| 20260510001139 | 13 | 179 | 14.5 | 27.4 | 0.00 | 0.00 | 0.00 | 76 | 1003.2 |
| 20260510000139 | 13 | 168 | 11.3 | 22.5 | 0.00 | 0.00 | 0.00 | 76 | 1003.2 |
| 20260509235639 | 13 | 157 | 11.3 | 19.3 | 0.00 | 0.00 | 0.00 | 77 | 1003.4 |
| 20260509235139 | 13 | 165 | 11.3 | 19.3 | 0.00 | 0.00 | 0.00 | 76 | 1003.5 |
| 20260509234638 | 13 | 164 | 9.7 | 19.3 | 0.00 | 0.00 | 0.00 | 76 | 1003.5 |